Regional Weather Roundup
Issued by NWS Cleveland, OH

Home | Current Version | Previous Version | Graphics & Text | Print | Product List | Glossary On
Versions: 1 2 3 4 5 6 7 8 9 10 11 12 13 14 15 16 17 18 19 20 21 22 23 24 25 26 27 28 29 30 31 32 33 34 35 36 37 38 39 40 41 42 43 44 45 46 47 48 49 50
000
ASUS41 KCLE 262302
RWRCLE
OHIO REGIONAL WEATHER ROUNDUP
NATIONAL WEATHER SERVICE CLEVELAND, OH
600 PM EST MON JAN 26 2015

NOTE: "FAIR" INDICATES FEW OR NO CLOUDS BELOW 12,000 FEET WITH NO
SIGNIFICANT WEATHER AND/OR OBSTRUCTIONS TO VISIBILITY.

OHZ001>008-015>018-024>027-034-035-043-044-270000-
   NORTHWEST OHIO

CITY           SKY/WX    TMP DP  RH WIND       PRES   REMARKS
DEFIANCE       PTCLDY    19   8  62 CALM      29.94R
FINDLAY        PTCLDY    13   7  77 W6        29.92R WCI   4
TOLEDO EXPRESS PTCLDY    21   9  59 CALM      29.93R
TOLEDO EXEC    CLEAR     17   9  70 E3        29.94R
LIMA           CLEAR     14   8  77 NW3       29.92R
$$

OHZ009>014-019>023-028>033-038-089-270000-
   NORTHEAST OHIO

CITY           SKY/WX    TMP DP  RH WIND       PRES   REMARKS
CLE-HOPKINS    LGT SNOW  20  15  81 N10       29.92R WCI   9
CLE-LAKEFRONT  CLOUDY    21  15  78 N13       29.90R WCI   9
CUY CO. ARPT   CLOUDY    21  19  93 MISG      29.89R
LORAIN-ELYRIA  CLOUDY    18  12  77 N8        29.90S WCI   8
ASHTABULA      LGT SNOW  20  15  81 N6        29.85R WCI  12
AKRON-CANTON   CLOUDY    21  15  78 N9        29.83R WCI  11
WOOSTER        CLOUDY    18  14  84 N13       29.86R WCI   5
MANSFIELD      CLOUDY    16  11  80 N12       29.86R HAZE    WCI   3
YOUNGSTOWN     CLOUDY    20  15  81 N13       29.81R WCI   7
$$

OHZ042-051>053-060>062-070>072-077>081-270000-
  SOUTHWEST OHIO

CITY           SKY/WX    TMP DP  RH WIND       PRES   REMARKS
CINC-COVINGTON MOCLDY    28  19  69 NW7       29.91R WCI  21
CINC-LUNKEN    PTCLDY    27  17  66 N9        29.95R WCI  18
HAMILTON       PTCLDY    25  15  66 N6        29.95R WCI  18
DAYTON         MOCLDY    16  11  80 NW5       29.93R WCI   9
WRIGHT-PAT AFB PTCLDY    19  11  73 NW6       29.94R WCI  11
DAYTON GENERAL CLEAR     19  11  70 N5        29.92R WCI  12
WILMINGTON     CLEAR     20  11  68 NW8       29.90R WCI  10
$$

OHZ036-037-039>041-045>050-054>059-063>069-073>076-082>088-270000-
  CENTRAL AND SOUTHEAST OHIO

CITY           SKY/WX    TMP DP  RH WIND       PRES   REMARKS
COLUMBUS       PTCLDY    17  10  74 N9        29.91R WCI   6
OSU AIRPORT    PTCLDY    15   9  76 NW8       29.91R WCI   4
BOLTON FIELD   PTCLDY    16  10  79 NW8       29.92R WCI   5
RICKENBACK AFB PTCLDY    17  12  81 NW6       29.92R WCI   8
NEWARK         PTCLDY    19  11  70 NW7       29.88R WCI  10
MARION         CLEAR     11   6  81 N7        29.91R WCI   0
LANCASTER      MOCLDY    19  13  77 NW8       29.90R WCI   9
ZANESVILLE     CLOUDY    23  17  78 N9        29.86R WCI  13
NEW PHILLY     CLOUDY    23  17  78 NW7       29.85R WCI  15
$$



USA.gov is the U.S. government's official web portal to all federal, state and local government web resources and services.